Rutland, VT

9:42 AM EDT on May 25, 2018 (GMT -0400)
Rutland State

Weather History for KRUT - January, 2012

Change the Weather History Date:

Monday, January 30, 2012

  Actual Average Record
Temperature  
Mean Temperature 27 °F -  
Max Temperature 34 °F - 61 °F (2013)
Min Temperature 19 °F - -10 °F (1973)
Degree Days  
Heating Degree Days 38    
Month to date heating degree days 1166  
Since 1 July heating degree days 3414  
Cooling Degree Days 0    
Month to date cooling degree days 0  
Year to date cooling degree days 0  
Moisture  
Dew Point 15 °F    
Average Humidity 73    
Maximum Humidity 100    
Minimum Humidity 46    
Precipitation  
Precipitation 0.02 in - 0.45 in (1990)
Month to date precipitation 1.23  
Year to date precipitation 1.23  
Sea Level Pressure  
Sea Level Pressure 30.08 in    
Wind  
Wind Speed 7 mph (NW)    
Max Wind Speed 17 mph    
Max Gust Speed 27 mph    
Visibility 9 miles    
Events      
T = Trace of Precipitation, MM = Missing Value Source: NWS Daily Summary

Daily Weather History Graph

Daily Weather History Graph

Search for Another Location

Airport or City:

Astronomy

Jan. 30, 2012 Rise Set
Actual Time 7:10 AM EST 4:59 PM EST
Civil Twilight 6:40 AM EST 5:30 PM EST
Nautical Twilight 6:05 AM EST 6:04 PM EST
Astronomical Twilight 5:32 AM EST 6:38 PM EST
Moon 10:16 AM EST (1/30) No Moon Set
Length of Visible Light 10h 50m
Length of Day
9h 49m
Waxing Crescent, 46% of the Moon is Illuminated
Jan 30
Waxing Crescent
Jan 30
First Quarter
Feb 7
Full
Feb 14
Last Quarter
Feb 21
New

Hourly Weather History & Observations

Time (EST) Temp. Windchill Dew Point Humidity Pressure Visibility Wind Dir Wind Speed Gust Speed Precip Events Conditions
12:15 AM 30.2 °F - 21.2 °F 69% 29.89 in 10.0 mi Calm Calm - N/A   Overcast
12:35 AM 30.2 °F 24.3 °F 21.2 °F 69% 29.89 in 10.0 mi SE 5.8 mph - N/A   Overcast
12:55 AM 30.2 °F 25.4 °F 21.2 °F 69% 29.88 in 10.0 mi SE 4.6 mph - N/A   Overcast
1:15 AM 30.2 °F 24.3 °F 19.4 °F 64% 29.88 in 10.0 mi SE 5.8 mph - N/A   Mostly Cloudy
1:35 AM 30.2 °F 25.4 °F 19.4 °F 64% 29.88 in 10.0 mi SSE 4.6 mph - N/A   Scattered Clouds
1:55 AM 33.8 °F 27.0 °F 19.4 °F 56% 29.88 in 10.0 mi SW 8.1 mph - N/A   Mostly Cloudy
2:15 AM 33.8 °F 24.3 °F 21.2 °F 60% 29.88 in 10.0 mi SW 13.8 mph 18.4 mph N/A   Overcast
2:35 AM 33.8 °F 30.8 °F 23.0 °F 65% 29.89 in 10.0 mi South 3.5 mph - N/A   Mostly Cloudy
2:55 AM 33.8 °F - 24.8 °F 70% 29.89 in 6.0 mi Calm Calm - N/A   Overcast
3:35 AM 30.2 °F - 26.6 °F 86% 29.90 in 2.0 mi Calm Calm - N/A   Overcast
3:55 AM 28.4 °F - 28.4 °F 100% 29.90 in 1.0 mi Calm Calm - N/A   Overcast
4:15 AM 28.4 °F 23.3 °F 28.4 °F 100% 29.91 in 1.0 mi NW 4.6 mph - N/A   Overcast
4:35 AM 28.4 °F 23.3 °F 28.4 °F 100% 29.92 in 1.2 mi NNW 4.6 mph - 0.01 in   Overcast
4:55 AM 28.4 °F 18.5 °F 26.6 °F 93% 29.94 in 1.2 mi NNW 11.5 mph 19.6 mph 0.01 in   Overcast
5:15 AM 26.6 °F 16.2 °F 24.8 °F 93% 29.95 in 1.5 mi NNW 11.5 mph 18.4 mph N/A   Overcast
5:35 AM 26.6 °F 17.5 °F 23.0 °F 86% 29.98 in 10.0 mi NNW 9.2 mph 16.1 mph 0.01 in   Overcast
5:55 AM 26.6 °F 16.2 °F 21.2 °F 80% 29.99 in 10.0 mi NNW 11.5 mph 17.3 mph 0.01 in   Overcast
6:35 AM 26.6 °F 15.2 °F 15.8 °F 64% 30.03 in 10.0 mi WNW 13.8 mph 21.9 mph N/A   Overcast
6:55 AM 24.8 °F 11.5 °F 10.4 °F 54% 30.04 in 9.0 mi West 17.3 mph 26.5 mph N/A   Overcast
7:15 AM 24.8 °F 14.0 °F 10.4 °F 54% 30.05 in 10.0 mi WNW 11.5 mph - N/A   Mostly Cloudy
7:35 AM 24.8 °F 14.0 °F 10.4 °F 54% 30.05 in 10.0 mi WNW 11.5 mph 24.2 mph N/A   Scattered Clouds
7:55 AM 24.8 °F 14.6 °F 10.4 °F 54% 30.06 in 10.0 mi WNW 10.4 mph 20.7 mph N/A   Mostly Cloudy
8:15 AM 26.6 °F 16.2 °F 8.6 °F 47% 30.08 in 10.0 mi West 11.5 mph - N/A   Overcast
8:35 AM 26.6 °F 17.5 °F 8.6 °F 47% 30.08 in 10.0 mi WNW 9.2 mph - N/A   Mostly Cloudy
9:35 AM 26.6 °F 15.7 °F 10.4 °F 51% 30.10 in 10.0 mi WSW 12.7 mph 16.1 mph N/A   Clear
9:55 AM 26.6 °F 16.2 °F 10.4 °F 51% 30.11 in 10.0 mi West 11.5 mph 19.6 mph N/A   Clear
10:15 AM 26.6 °F 14.3 °F 8.6 °F 47% 30.11 in 10.0 mi WNW 16.1 mph 20.7 mph N/A   Clear
10:35 AM 26.6 °F 17.5 °F 10.4 °F 51% 30.12 in 10.0 mi WNW 9.2 mph 19.6 mph N/A   Scattered Clouds
11:15 AM 28.4 °F 19.7 °F 12.2 °F 51% 30.14 in 10.0 mi WNW 9.2 mph 25.3 mph N/A   Mostly Cloudy
11:35 AM 28.4 °F 18.5 °F 12.2 °F 51% 30.14 in 10.0 mi WNW 11.5 mph - N/A   Overcast
11:55 AM 26.6 °F 19.1 °F 10.4 °F 51% 30.14 in 10.0 mi NW 6.9 mph - N/A   Overcast
12:15 PM 26.6 °F 16.2 °F 10.4 °F 51% 30.14 in 10.0 mi NNW 11.5 mph 17.3 mph N/A   Overcast
1:15 PM 26.6 °F 18.2 °F 12.2 °F 55% 30.14 in 10.0 mi NNW 8.1 mph - N/A   Overcast
1:35 PM 26.6 °F 18.2 °F 12.2 °F 55% 30.14 in 10.0 mi NNW 8.1 mph 18.4 mph N/A   Overcast
1:55 PM 26.6 °F 18.2 °F 12.2 °F 55% 30.14 in 10.0 mi NW 8.1 mph - N/A   Overcast
2:35 PM 26.6 °F 17.5 °F 10.4 °F 51% 30.14 in 10.0 mi NW 9.2 mph - N/A   Overcast
3:15 PM 28.4 °F 18.5 °F 10.4 °F 47% 30.15 in 10.0 mi NW 11.5 mph - N/A   Overcast
3:35 PM 28.4 °F 19.1 °F 10.4 °F 47% 30.16 in 10.0 mi NW 10.4 mph 17.3 mph N/A   Overcast
4:15 PM 26.6 °F 21.2 °F 8.6 °F 47% 30.18 in 10.0 mi NW 4.6 mph - N/A   Overcast
4:35 PM 26.6 °F 18.2 °F 8.6 °F 47% 30.18 in 10.0 mi NW 8.1 mph - N/A   Overcast
4:55 PM 26.6 °F 19.1 °F 10.4 °F 51% 30.18 in 10.0 mi NNW 6.9 mph - N/A   Overcast
5:15 PM 24.8 °F 17.9 °F 10.4 °F 54% 30.19 in 10.0 mi NW 5.8 mph - N/A   Overcast
5:35 PM 24.8 °F 16.9 °F 10.4 °F 54% 30.19 in 10.0 mi NNW 6.9 mph - N/A   Overcast
5:55 PM 24.8 °F 16.9 °F 10.4 °F 54% 30.20 in 10.0 mi NW 6.9 mph - N/A   Overcast
6:15 PM 24.8 °F 19.1 °F 10.4 °F 54% 30.20 in 10.0 mi NW 4.6 mph - N/A   Scattered Clouds
6:55 PM 24.8 °F 20.5 °F 10.4 °F 54% 30.21 in 10.0 mi North 3.5 mph - N/A   Mostly Cloudy
7:35 PM 21.2 °F 16.4 °F 10.4 °F 63% 30.20 in 10.0 mi WNW 3.5 mph - N/A   Partly Cloudy
7:55 PM 21.2 °F 16.4 °F 10.4 °F 63% 30.20 in 10.0 mi North 3.5 mph - N/A   Partly Cloudy
8:15 PM 19.4 °F 14.3 °F 12.2 °F 74% 30.21 in 10.0 mi SSE 3.5 mph - N/A   Mostly Cloudy
8:35 PM 21.2 °F 16.4 °F 10.4 °F 63% 30.22 in 10.0 mi SSE 3.5 mph - N/A   Overcast
8:55 PM 19.4 °F - 10.4 °F 68% 30.21 in 10.0 mi Calm Calm - N/A   Mostly Cloudy
9:35 PM 21.2 °F - 12.2 °F 68% 30.21 in 10.0 mi Calm Calm - N/A   Mostly Cloudy
9:55 PM 19.4 °F 11.5 °F 12.2 °F 74% 30.21 in 10.0 mi ESE 5.8 mph - N/A   Overcast
10:15 PM 21.2 °F 11.7 °F 12.2 °F 68% 30.21 in 10.0 mi ESE 8.1 mph - N/A   Overcast
10:35 PM 19.4 °F 9.5 °F 12.2 °F 74% 30.21 in 10.0 mi ESE 8.1 mph - N/A   Overcast
10:55 PM 19.4 °F 8.6 °F 10.4 °F 68% 30.21 in 10.0 mi ESE 9.2 mph - N/A   Overcast
11:15 PM 19.4 °F 8.6 °F 12.2 °F 74% 30.21 in 10.0 mi SE 9.2 mph - N/A   Overcast
11:55 PM 19.4 °F 8.6 °F 12.2 °F 74% 30.21 in 10.0 mi SE 9.2 mph - N/A   Overcast